CZ-2D DEB, 44610

Orbit data source: Space-Track

CZ-2D DEB, 44610 is space debris in SSO originally from a launch on Mon, 09 Oct 2017 UTC launched from the Jiuquan Satellite Launch Center, China (JSC). Debris objects in space refer to the collection of defunct objects orbiting the Earth. Examples of debris include non-operational satellites, rocket bodies, and fragments generated from explosions, collisions, or faulty payload assembly.

Loading next visibility...
Identifier
44610, 2017-060C
Orbit
SSO
Country
Flag of CNCN / PRC
Related business
Manufacturer
Unknown
Mission
Spacecraft
Bus & Motor
Unknown
Mass
Unknown
Launch date (UTC)
2017-10-09 (8 years ago)
Launch vehicle
Unknown
Launch site
Jiuquan Satellite Launch Center, China (JSC)
Object type
Payload
Rocket body
Debris
Shape & HBR
Unknown
Radar Cross Section
Small (<0.1 m²)

Expand to show TLE details & history
Last TLE update: 22 hours ago

TLE from 22 hours ago
0 CZ-2D DEB
1 44610U 17060C   25242.45206254  .00011483  00000-0  84606-3 0  9996
2 44610  98.2506  63.7443 0019211 351.9639   8.1274 15.03367483425478
Epoch: 2025-08-30T10:50Z
TLE epoch observation values (Epoch: 2025-08-30T10:50:58.203Z)
Latitude
-0.00002°
Longitude
-77.88437°
Altitude
546.373 km
Speed
7.596 km/s
True Right ascension
04h 14m 58s
True Declination
0° 00' 00"
Sunlit
Object was in daylight at epoch
Visualization orbit readout
Latitude
Unknown
Longitude
Unknown
Altitude
Unknown
Speed
Unknown
Apparent Right ascension
Unknown
Apparent Declination
Unknown
Sunlit
N/A
Visualization observer readout
Local Sidereal Time
00:19:47
Azimuth
Unknown
Elevation
Unknown
Doppler factor
Unknown
Orbital elements
Apogee altitude
566.864 km
Perigee altitude
540.231 km
Semi-major axis
6,931.684 km
Eccentricity
0.00192
Inclination
98.2506°
RAAN
63.7443°
Arg. of periapsis
351.9639°
True anomaly
8.1586°
Mean anomaly
8.1274°
Eccentric anomaly
8.14299°
Mean motion
3.76084 °/min
Orbital period
95.72 mins
BSTAR
0.00084606
Loading maneuver chart data...
Computing Atmospheric mass density...
Loading historical data...
Loading historical data...
Loading historical data...
Loading historical data...
Loading historical data...
Loading historical data...
Loading historical data...
Other satellites on launch #60 in the year 2017 (2017-10-09 UTC)

Documentation

Showing up to 5 results
|